Flag for U.S.A. Weather past 2 weeks in Cupertino, California, U.S.A.

Now
77 °F

Sunny.


Feels Like: 79 °F
Forecast: 61 / 76 °F
Wind: 13 mph from North

Location: Moffett Field

Current Time: Sep 22, 2014 at 3:40:49 PM

Latest Report: Sep 22, 2014 at 2:56 PM


Visibility: 10 mi

Pressure: 29.98 "Hg

Humidity: 52%

Dew point: 58 °F

Location of CupertinoLocation

Historic Weather in Cupertino — Graph

°F

Cupertino temperature yesterday

Maximum temperature yesterday: 73 °F (at 1:56 PM)
Minimum temperature yesterday: 64 °F (at 2:56 AM)
Average temperature yesterday: 67 °F

Past Weeks' High & Low Weather Summary

 TemperatureHumidityPressure
High86 °F (Sep 10, 2:56 PM)90% (Sep 10, 5:56 AM)30.07 "Hg (Sep 10, 5:56 AM)
Low56 °F (Sep 9, 1:56 AM)29% (Sep 10, 2:56 PM)29.74 "Hg (Sep 17, 5:56 PM)
Average68 °F70%29.89 "Hg
* Reported Sep 7 1:56 PM — Sep 22 1:56 PM, Cupertino, Weather by CustomWeather, © 2014

Note: Actual official high and low records may vary slightly from our data, if they occured in-between our weather recording intervals... More about our weather records

Advertising

Cupertino weather history for previous 24 hours

 ConditionsComfort  
Time TempWeatherWind HumidityBarometerVisibility
1:56 PM
Sep 22
75 °FSunny.5 mph55%30.00 "Hg10 mi
12:56 PM73 °FSunny.5 mph57%30.03 "Hg10 mi
11:56 AM71 °FSunny.3 mph59%30.05 "Hg10 mi
10:56 AM67 °FOvercast.No wind71%30.06 "Hg10 mi
9:56 AM66 °FOvercast.6 mph70%30.07 "Hg10 mi
8:56 AM65 °FOvercast.3 mph76%30.05 "Hg10 mi
7:56 AM64 °FOvercast.No wind78%30.04 "Hg10 mi
6:56 AM64 °FOvercast.3 mph78%30.03 "Hg10 mi
5:56 AM64 °FOvercast.3 mph78%30.02 "Hg10 mi
4:56 AM64 °FOvercast.7 mph78%30.02 "Hg10 mi
3:56 AM65 °FOvercast.5 mph78%30.01 "Hg10 mi
2:56 AM65 °FOvercast.No wind78%30.02 "Hg10 mi
1:56 AM65 °FOvercast.No wind78%30.02 "Hg10 mi
12:56 AM65 °FOvercast.No wind78%30.02 "Hg10 mi
11:56 PM
Sep 21
65 °FOvercast.No wind78%30.03 "Hg10 mi
10:56 PM65 °FOvercast.6 mph78%30.03 "Hg10 mi
9:56 PM65 °FOvercast.5 mph78%30.03 "Hg10 mi
8:56 PM65 °FClear.5 mph78%30.03 "Hg10 mi
7:56 PM66 °FSunny.6 mph75%30.01 "Hg10 mi
6:56 PM67 °FSunny.10 mph73%30.01 "Hg10 mi
5:56 PM71 °FSunny.13 mph66%29.99 "Hg10 mi
4:56 PM72 °FSunny.16 mph66%29.98 "Hg10 mi
3:56 PM72 °FSunny.16 mph64%29.99 "Hg10 mi
Weather by CustomWeather, © 2014

See weather overviewHow to use our weather pages